Regional Weather Roundup
Issued by NWS

Home | Current Version | Previous Version | Graphics & Text | Print | Product List | Glossary On
Versions: 1 2 3 4 5 6 7 8 9 10 11 12 13 14 15 16 17 18 19 20 21 22 23 24 25 26 27 28 29 30 31 32 33 34 35 36 37 38 39 40 41 42 43 44 45 46 47 48 49 50
000
ASUS43 KOAX 301402
RWRNE

WEATHER ROUNDUP FOR NEBRASKA
NATIONAL WEATHER SERVICE OMAHA NE
900 AM CDT SUN AUG 30 2015

NOTES: SATELLITE DATA IS BEING USED TO AUGMENT CLOUD COVER ABOVE
       12000 FEET.
       "FAIR" INDICATES FEW OR NO CLOUDS BELOW 12,000 FEET WITH NO
       SIGNIFICANT WEATHER AND/OR OBSTRUCTIONS TO VISIBILITY.

  * THESE STATIONS DO NOT REPORT WEATHER SUCH AS RAIN...SNOW OR FOG.

NEZ001>004-019>022-054>056-301500-
NEBRASKA PANHANDLE

CITY           SKY/WX    TMP DP  RH WIND       PRES   REMARKS
SCOTTSBLUFF    SUNNY     64  48  56 E5        29.99R
ALLIANCE       MOSUNNY   68  48  48 S7        29.99S
CHADRON        MOSUNNY   73  44  35 S12       29.89S
KIMBALL        SUNNY     62  44  52 S7        30.04F
SIDNEY         SUNNY     68  46  45 SW10      30.04F
$$

NEZ057>060-069>072-079>082-301500-
SOUTHWEST NEBRASKA

CITY           SKY/WX    TMP DP  RH WIND       PRES   REMARKS
NORTH PLATTE   SUNNY     62  56  80 CALM      30.03S
IMPERIAL       SUNNY     67  48  50 S10       30.04S
MCCOOK         SUNNY     61  54  77 CALM      30.05S
$$

NEZ005>010-023>029-035>040-094-301500-
NORTH CENTRAL NEBRASKA

CITY           SKY/WX    TMP DP  RH WIND       PRES   REMARKS
VALENTINE      SUNNY     65  53  65 SW6       29.94F
AINSWORTH      MOSUNNY   65  55  70 S10       29.97F
BROKEN BOW     SUNNY     63  59  87 CALM      30.02S
O`NEILL        SUNNY     65  62  92 S8        29.99S
ORD            SUNNY     58  58 100 E5        30.01S
$$

NEZ041-046>049-061>064-073>077-083>087-301500-
SOUTH CENTRAL NEBRASKA

CITY           SKY/WX    TMP DP  RH WIND       PRES   REMARKS
GRAND ISLAND   CLOUDY    64  62  93 S7        30.05S
AURORA         FOG       63  63 100 S7        30.05S VSB 1
HASTINGS       FOG       62  61  96 S7        30.05F VSB 1/4
KEARNEY *      MOSUNNY   61  57  88 S5        30.04F
YORK           FOG       63  63 100 SW6       30.06S VSB<1/4
$$

NEZ011>018-030>034-042>045-301500-
NORTHEAST NEBRASKA

CITY           SKY/WX    TMP DP  RH WIND       PRES   REMARKS
NORFOLK        CLOUDY    63  62  97 S7        30.02S FOG
BLAIR          FOG       62  60  94 SW7       30.05S VSB 1/2
COLUMBUS *     CLOUDY    63  57  82 CALM      30.05S
FREMONT        CLOUDY    63  62  95 S6        30.05S FOG
TEKAMAH        CLOUDY    62  61  96 SW7       30.04S FOG
$$

NEZ050>053-065>068-078-088>093-301500-
SOUTHEAST NEBRASKA

CITY           SKY/WX    TMP DP  RH WIND       PRES   REMARKS
LINCOLN        CLOUDY    63  61  93 SW7       30.06S FOG
OMAHA EPPLEY   CLOUDY    64  62  93 S7        30.06R FOG
FALLS CITY     FOG       61  61 100 NW3       30.05S VSB 1/4
$$

NEZ044-045-051>053-067-301500-
OMAHA AREA

CITY           SKY/WX    TMP DP  RH WIND       PRES   REMARKS
OMAHA EPPLEY   CLOUDY    64  62  93 S7        30.06R FOG
BLAIR          FOG       62  60  94 SW7       30.05S VSB 1/2
FREMONT        CLOUDY    63  62  95 S6        30.05S FOG
OFFUTT AFB     CLOUDY    64  64  99 S3        30.05S
$$




USA.gov is the U.S. government's official web portal to all federal, state and local government web resources and services.